[[{"header":{"parameterUnit":"m.s-1","parameterCategory":1,"la1":30.2991,"la2":30.254,"lo1":-89.0895,"lo2":-89.0444,"dy":0.0017,"dx":0.0017,"nx":28,"ny":28,"refTime":"2023-11-01T21:00:00:Z","depth":0,"parameterNumber":2,"parameterNumberName":"U-component_of_WINDS"},"data":[0,0,0,0,0,0,0,0,0,0,0,0,0,0,0,0,0,0,0,0,0,0,0,0,0,0,0,0,0,0,0,0,0,0,0,0,0,0,0,0,0,0,0,0,0,0,0,0,0,0,0,0,0,0,0,0,0,0,-1.8093,-1.8094,0,-1.8166,-1.8167,-1.8167,-1.8135,-1.8133,-1.8132,-1.813,-1.8204,-1.8208,-1.8211,0,0,0,0,0,0,0,0,0,0,0,0,0,-1.7924,-1.7927,-1.8093,-1.8094,-1.8095,-1.8166,-1.8167,-1.8168,-1.8135,-1.8133,-1.8131,-1.8129,-1.8203,-1.8207,-1.8212,0,0,0,0,0,0,0,0,0,0,0,0,0,-1.7997,-1.7928,-1.8093,-1.8087,-1.8087,-1.8165,-1.8167,-1.8168,-1.8136,-1.8133,-1.813,-1.8128,-1.8201,-1.8207,-1.8212,-1.83,0,0,-1.8229,-1.8231,0,0,0,0,0,0,0,0,-1.7993,-1.8003,-1.8087,-1.8088,-1.8088,-1.8139,-1.8134,-1.8212,-1.8137,-1.8117,-1.813,-1.8127,-1.8184,-1.8191,-1.8211,-1.8303,-1.8307,-1.8229,-1.8233,-1.8235,-1.8237,0,0,0,0,0,0,0,-1.7988,-1.8,-1.8122,-1.8088,-1.8089,-1.808,-1.8088,-1.8149,-1.8165,-1.8119,-1.8117,-1.8126,-1.8184,-1.8206,-1.8212,-1.8308,-1.8229,-1.8234,-1.8238,-1.824,-1.8474,-1.8477,0,0,0,0,0,0,-1.7983,-1.7996,-1.8119,-1.8124,-1.8033,-1.8086,-1.8094,-1.8125,-1.8164,-1.8168,-1.8128,-1.8124,-1.8198,-1.8206,-1.8215,-1.8319,-1.8235,-1.824,-1.8243,-1.8471,-1.8475,-1.8478,0,0,0,0,0,0,-1.7979,-1.7994,-1.8116,-1.8059,-1.8074,-1.8091,-1.8127,-1.8128,-1.8149,-1.8171,-1.8174,-1.8147,-1.8196,-1.8207,-1.8279,-1.8321,-1.8243,-1.8248,-1.8468,-1.8472,-1.8477,-1.853,0,0,0,0,0,0,-1.7975,-1.7993,-1.8027,-1.806,-1.8077,-1.818,-1.8129,-1.8131,-1.8159,-1.8154,-1.819,-1.8193,-1.8194,-1.8271,-1.8284,-1.8328,-1.8252,-1.8464,-1.847,-1.8475,-1.8524,-1.8535,-1.8545,0,0,0,0,0,-1.7969,-1.8039,-1.8029,-1.8044,-1.812,-1.8182,-1.8192,-1.8192,-1.8162,-1.8196,-1.821,-1.8192,-1.8314,-1.8278,-1.8293,-1.8339,-1.8461,-1.8468,-1.8475,-1.852,-1.8533,-1.8545,0,0,0,0,0,0,-1.8011,-1.8044,-1.8033,-1.8116,-1.8147,-1.8177,-1.822,-1.8207,-1.8247,-1.8241,-1.8239,-1.8247,-1.8321,-1.8337,-1.8296,-1.8425,-1.8383,-1.8393,-1.8412,-1.8425,-1.8436,-1.843,-1.8256,0,0,0,0,0,-1.803,-1.8078,-1.8104,-1.8175,-1.8191,-1.8203,-1.823,-1.8227,-1.8259,-1.8272,-1.8291,-1.8322,-1.8367,-1.8397,-1.844,-1.8526,-1.8533,-1.8565,-1.8575,-1.8583,-1.8592,-1.8637,-1.8652,-1.85,-1.85,-1.85,0,0,-1.807,-1.8094,-1.8125,-1.8184,-1.8208,-1.8257,-1.8214,-1.8268,-1.8304,-1.828,-1.8349,-1.8364,-1.8398,-1.8477,-1.8512,-1.8492,-1.8635,-1.8592,-1.8598,-1.8603,-1.8646,-1.866,-1.8673,-1.8504,-1.8504,-1.8503,0,0,-1.8168,-1.8191,-1.8253,-1.8277,-1.8313,-1.832,-1.8334,-1.8366,-1.8375,-1.8444,-1.8426,-1.8469,-1.8547,-1.8572,-1.8595,-1.87,-1.8685,-1.8714,-1.8769,-1.8813,-1.8825,-1.8836,-1.8873,-1.8886,-1.8723,-1.8723,-1.8723,0,-1.8214,-1.8288,-1.8286,-1.8341,-1.8368,-1.8347,-1.8409,-1.8432,-1.848,-1.8498,-1.8475,-1.8572,-1.8594,-1.8677,-1.8703,-1.8722,-1.8739,-1.8711,-1.8824,-1.8834,-1.8844,-1.8879,-1.8893,-1.8726,-1.8726,-1.8726,-1.8725,0,-1.8341,-1.8392,-1.8438,-1.8484,-1.8515,-1.8574,-1.858,-1.8612,-1.8606,-1.8616,-1.8685,-1.871,-1.8757,-1.8777,-1.8772,-1.886,-1.8846,-1.8823,-1.8781,-1.8862,-1.8895,-1.8909,-1.8731,-1.873,-1.8729,-1.8728,0,0,-1.8469,-1.8513,-1.853,-1.855,-1.8587,-1.8627,-1.8683,-1.8729,-1.8756,-1.8789,-1.8836,-1.8902,-1.8881,-1.8907,-1.8904,-1.8943,-1.9024,-1.8915,-1.8916,-1.8934,-1.9121,-1.9139,-1.9154,-1.9014,-1.9016,-1.9018,-1.9118,0,-1.857,-1.867,-1.8669,-1.8761,-1.8808,-1.8788,-1.8837,-1.8865,-1.8875,-1.8915,-1.8926,-1.8972,-1.8941,-1.8956,-1.8994,-1.9006,-1.9062,-1.8999,-1.9057,-1.9059,-1.9049,-1.9172,-1.919,-1.9284,-1.9131,-1.9134,-1.9135,0,-1.8701,-1.8738,-1.8835,-1.8864,-1.8883,-1.8928,-1.8969,-1.9008,-1.9039,-1.9043,-1.9071,-1.9062,-1.9119,-1.9075,-1.9152,-1.9109,-1.9133,-1.9142,-1.9146,-1.9151,-1.9102,-1.918,-1.9314,-1.9328,-1.9156,-1.9154,-1.9153,0,-1.8784,-1.8858,-1.8925,-1.8943,-1.8979,-1.9011,-1.9027,-1.9054,-1.9082,-1.9118,-1.9135,-1.9177,-1.92,-1.9232,-1.9234,-1.9202,-1.9312,-1.9269,-1.9317,-1.9317,-1.9341,-1.934,-1.948,-1.9356,-1.9356,-1.9356,-1.9356,0,-1.8896,-1.8956,-1.8963,-1.9004,-1.907,-1.9069,-1.9134,-1.9147,-1.9171,-1.9214,-1.9199,-1.924,-1.924,-1.9281,-1.9283,-1.9346,-1.9357,-1.9361,-1.9361,-1.9363,-1.9362,-1.9378,-1.9372,-1.936,-1.9359,-1.9358,-1.9357,0,-1.9001,-1.9008,-1.908,-1.9107,-1.9115,-1.9163,-1.9186,-1.9225,-1.9232,-1.9287,-1.9299,-1.9312,-1.9359,-1.9364,-1.9419,-1.942,-1.9497,-1.949,-1.9487,-1.9485,-1.9533,-1.9528,-1.9689,-1.9709,-1.9572,-1.9574,-1.9575,0,-1.9072,-1.9118,-1.915,-1.9178,-1.9195,-1.924,-1.9268,-1.9267,-1.9296,-1.9333,-1.9368,-1.9413,-1.945,-1.9526,-1.954,-1.9581,-1.9575,-1.9628,-1.9581,-1.9581,-1.9575,-1.9573,-1.9577,-1.9637,-1.9639,-1.964,-1.9641,0,-1.9198,-1.9199,-1.9239,-1.9281,-1.9314,-1.9346,-1.9377,-1.94,-1.9403,-1.9436,-1.9485,-1.9513,-1.9569,-1.9614,-1.9655,-1.967,-1.9656,-1.9656,-1.9669,-1.9671,-1.9667,-1.9669,-1.9511,-1.9652,-1.9651,-1.965,-1.965,-1.9649,-1.9288,-1.9327,-1.9355,-1.94,-1.9423,-1.9452,-1.9489,-1.9501,-1.9541,-1.9587,-1.9584,-1.9637,-1.9664,-1.9717,-1.9736,-1.9777,-1.9759,-1.9779,-1.9783,-1.9788,-1.9793,-1.9661,-1.9784,-1.9784,-1.9784,-1.9783,-1.9783,0,-1.9412,-1.9429,-1.9471,-1.9514,-1.9549,-1.9532,-1.9564,-1.9595,-1.9642,-1.9669,-1.9705,-1.9759,-1.9803,-1.9819,-1.9861,-1.9891,-1.9885,-1.9902,-1.99,-1.9903,-1.9807,-1.9791,-1.9905,-1.9905,-1.9905,-1.9905,-1.9905,-1.9905,-1.9481,-1.9546,-1.955,-1.9625,-1.9642,-1.9694,-1.9713,-1.9739,-1.9761,-1.9822,-1.9858,-1.9869,-1.9891,-1.9934,-1.9973,-1.9977,-1.9993,-2.0012,-2.0013,-1.9922,-1.991,-1.9898,-1.9883,-2.0016,-2.0016,-2.0106,-2.0107,-2.0107]},{"header":{"parameterUnit":"m.s-1","parameterCategory":1,"la1":30.2991,"la2":30.254,"lo1":-89.0895,"lo2":-89.0444,"dy":0.0017,"dx":0.0017,"nx":28,"ny":28,"refTime":"2023-11-01T21:00:00:Z","depth":0,"parameterNumber":3,"parameterNumberName":"V-component_of_WINDS"},"data":[0,0,0,0,0,0,0,0,0,0,0,0,0,0,0,0,0,0,0,0,0,0,0,0,0,0,0,0,0,0,0,0,0,0,0,0,0,0,0,0,0,0,0,0,0,0,0,0,0,0,0,0,0,0,0,0,0,0,-7.177,-7.1771,0,-7.1907,-7.1909,-7.191,-7.1818,-7.1814,-7.1809,-7.1806,-7.1939,-7.1946,-7.1954,0,0,0,0,0,0,0,0,0,0,0,0,0,-7.142,-7.1427,-7.177,-7.1771,-7.1773,-7.1907,-7.1909,-7.1911,-7.1819,-7.1813,-7.1808,-7.1804,-7.1937,-7.1945,-7.1954,0,0,0,0,0,0,0,0,0,0,0,0,0,-7.1566,-7.1429,-7.1769,-7.1744,-7.1743,-7.1907,-7.1909,-7.1911,-7.182,-7.1813,-7.1807,-7.1801,-7.1934,-7.1945,-7.1956,-7.215,0,0,-7.199,-7.1995,0,0,0,0,0,0,0,0,-7.1557,-7.1579,-7.1746,-7.1746,-7.1745,-7.1839,-7.1834,-7.1991,-7.1821,-7.179,-7.1805,-7.1798,-7.191,-7.1923,-7.1962,-7.2157,-7.2162,-7.1991,-7.1998,-7.2002,-7.2006,0,0,0,0,0,0,0,-7.1548,-7.1572,-7.1824,-7.1748,-7.1748,-7.1722,-7.1736,-7.1863,-7.1884,-7.1792,-7.1786,-7.1804,-7.1909,-7.1952,-7.1965,-7.2164,-7.199,-7.2,-7.2007,-7.2012,-7.2522,-7.2529,0,0,0,0,0,0,-7.1541,-7.1564,-7.1819,-7.1828,-7.1634,-7.1734,-7.1749,-7.1815,-7.1882,-7.1886,-7.1809,-7.1799,-7.1936,-7.1952,-7.1969,-7.22,-7.2002,-7.2013,-7.2019,-7.2516,-7.2524,-7.2531,0,0,0,0,0,0,-7.1534,-7.1564,-7.1814,-7.1695,-7.1724,-7.1747,-7.1821,-7.1821,-7.1864,-7.1895,-7.1897,-7.185,-7.1932,-7.1953,-7.2106,-7.2204,-7.2018,-7.2028,-7.2508,-7.2518,-7.2528,-7.2665,0,0,0,0,0,0,-7.1524,-7.1562,-7.1639,-7.1697,-7.1731,-7.1951,-7.1827,-7.1828,-7.1884,-7.1873,-7.1934,-7.1938,-7.1928,-7.209,-7.2117,-7.2216,-7.2037,-7.2499,-7.2512,-7.2524,-7.2652,-7.2679,-7.2702,0,0,0,0,0,-7.1512,-7.1671,-7.1643,-7.1674,-7.1828,-7.1957,-7.1976,-7.1964,-7.1893,-7.1968,-7.1988,-7.1936,-7.2189,-7.2106,-7.2136,-7.224,-7.2493,-7.2509,-7.2523,-7.264,-7.2673,-7.2701,0,0,0,0,0,0,-7.1621,-7.1678,-7.1648,-7.1831,-7.189,-7.1941,-7.2036,-7.2,-7.2079,-7.2064,-7.2044,-7.2058,-7.2218,-7.2244,-7.2151,-7.243,-7.2329,-7.2351,-7.2408,-7.2439,-7.2463,-7.2453,-7.2046,0,0,0,0,0,-7.1667,-7.177,-7.1813,-7.197,-7.2002,-7.2014,-7.207,-7.2056,-7.2116,-7.2139,-7.217,-7.2228,-7.232,-7.2381,-7.2467,-7.2655,-7.2666,-7.2741,-7.2766,-7.2786,-7.2805,-7.2904,-7.2937,-7.2582,-7.2582,-7.2582,0,0,-7.1761,-7.1805,-7.1871,-7.1993,-7.2037,-7.2142,-7.2036,-7.2151,-7.2228,-7.2156,-7.2302,-7.2327,-7.2389,-7.256,-7.2637,-7.2587,-7.2905,-7.2806,-7.2822,-7.283,-7.2923,-7.2957,-7.2987,-7.2593,-7.2591,-7.2589,0,0,-7.1988,-7.2032,-7.2168,-7.2214,-7.2283,-7.2291,-7.2323,-7.238,-7.2394,-7.2541,-7.2489,-7.2578,-7.2738,-7.2785,-7.2829,-7.3072,-7.3026,-7.3101,-7.323,-7.3327,-7.3355,-7.338,-7.3464,-7.3495,-7.3119,-7.312,-7.312,0,-7.2096,-7.2254,-7.2241,-7.2361,-7.2415,-7.2357,-7.2492,-7.2537,-7.263,-7.2667,-7.261,-7.2809,-7.2847,-7.3027,-7.3086,-7.3125,-7.3159,-7.3093,-7.3353,-7.3377,-7.34,-7.348,-7.3513,-7.3128,-7.3127,-7.3126,-7.3126,0,-7.2383,-7.2494,-7.2594,-7.2688,-7.2753,-7.288,-7.2883,-7.295,-7.293,-7.2942,-7.3091,-7.3135,-7.3228,-7.327,-7.3251,-7.3447,-7.3414,-7.3356,-7.3253,-7.3442,-7.3518,-7.3549,-7.314,-7.3137,-7.3135,-7.3133,0,0,-7.2682,-7.2767,-7.2804,-7.2845,-7.2916,-7.3,-7.3122,-7.3216,-7.3273,-7.3339,-7.344,-7.3576,-7.3522,-7.3573,-7.3558,-7.3643,-7.3831,-7.3574,-7.3575,-7.3619,-7.4047,-7.4089,-7.4126,-7.3801,-7.3807,-7.3812,-7.4041,0,-7.2911,-7.3128,-7.3119,-7.3321,-7.3421,-7.3367,-7.3473,-7.3527,-7.3542,-7.3627,-7.3641,-7.3738,-7.3661,-7.3691,-7.3773,-7.3791,-7.3916,-7.3774,-7.3892,-7.3897,-7.3877,-7.4165,-7.4211,-7.4425,-7.407,-7.4075,-7.4079,0,-7.3207,-7.3285,-7.3498,-7.3553,-7.3595,-7.3691,-7.3776,-7.3859,-7.3917,-7.3921,-7.3978,-7.3949,-7.407,-7.3966,-7.4131,-7.4035,-7.4082,-7.4098,-7.4106,-7.4116,-7.3999,-7.4181,-7.4493,-7.4525,-7.4126,-7.4122,-7.4119,0,-7.3402,-7.356,-7.3707,-7.3744,-7.3812,-7.3881,-7.3912,-7.3965,-7.4022,-7.4095,-7.4131,-7.4216,-7.4263,-7.4328,-7.4322,-7.4247,-7.4489,-7.4384,-7.4494,-7.4494,-7.4546,-7.4543,-7.487,-7.458,-7.4579,-7.4579,-7.4578,0,-7.3658,-7.379,-7.3795,-7.3886,-7.403,-7.4017,-7.416,-7.4184,-7.4231,-7.4323,-7.4281,-7.4367,-7.4355,-7.444,-7.4436,-7.4572,-7.4594,-7.4599,-7.4596,-7.4602,-7.4601,-7.4632,-7.4616,-7.4587,-7.4585,-7.4584,-7.4582,0,-7.39,-7.3909,-7.4066,-7.4118,-7.4134,-7.4239,-7.4282,-7.4366,-7.4377,-7.4494,-7.452,-7.4536,-7.4635,-7.4636,-7.4748,-7.4745,-7.4912,-7.4892,-7.4893,-7.4888,-7.4997,-7.4987,-7.5354,-7.54,-7.5082,-7.5085,-7.5087,0,-7.4062,-7.4162,-7.4226,-7.4286,-7.4322,-7.4418,-7.4476,-7.4467,-7.4528,-7.4602,-7.4677,-7.4772,-7.4848,-7.5008,-7.5028,-7.5113,-7.5095,-7.5217,-7.5107,-7.511,-7.5094,-7.5088,-7.5097,-7.5239,-7.5242,-7.5245,-7.5247,0,-7.4348,-7.4348,-7.4434,-7.4523,-7.4594,-7.4662,-7.4725,-7.4775,-7.4772,-7.4843,-7.4945,-7.5004,-7.5119,-7.5213,-7.5296,-7.5324,-7.5285,-7.5282,-7.5312,-7.5319,-7.5314,-7.5316,-7.495,-7.5274,-7.5271,-7.5269,-7.5268,-7.5267,-7.4554,-7.464,-7.4699,-7.4796,-7.4842,-7.4902,-7.4984,-7.5005,-7.5091,-7.5186,-7.5174,-7.5287,-7.534,-7.5447,-7.5484,-7.557,-7.5526,-7.557,-7.558,-7.5591,-7.5602,-7.5302,-7.5585,-7.5584,-7.5583,-7.5583,-7.5582,0,-7.4837,-7.4872,-7.4962,-7.5052,-7.5128,-7.5087,-7.5154,-7.5219,-7.532,-7.5375,-7.5451,-7.5566,-7.5657,-7.5685,-7.5772,-7.5836,-7.582,-7.5859,-7.5853,-7.586,-7.5637,-7.5602,-7.587,-7.587,-7.587,-7.587,-7.587,-7.587,-7.4993,-7.5136,-7.5142,-7.5307,-7.534,-7.5452,-7.5494,-7.5548,-7.5591,-7.5723,-7.58,-7.5818,-7.5861,-7.5951,-7.6032,-7.6037,-7.607,-7.6117,-7.6115,-7.5905,-7.5876,-7.5848,-7.5815,-7.6125,-7.6125,-7.6331,-7.6333,-7.6334]}]]